Wetbulb
70.18 72.27 74.85 74.09 73.42 72.95 72.58 72.17 71.96 72.35 72.97 72.89 72.77 72.10 71.19 70.64 70.13 69.23 68.33 67.62 66.87 67.81 68.99 70.28 70.51 71.38 71.67 71.38 70.81 70.01 69.20 68.63 67.71 66.41 65.23 65.13 66.30 67.07 67.27 67.21 67.64 66.30 66.61
71.38 72.41 74.47 74.52 73.47 72.83 71.89 71.23 70.89 70.74 71.63 71.90 72.07 71.87 71.01 70.59 69.62 68.20 67.89 66.92 66.70 67.32 68.34 69.18 69.89 70.71 70.82 70.31 69.67 69.02 68.33 67.39 66.29 65.97 65.92 65.48 66.13 66.29 66.75 67.44 66.90 66.45 65.75
71.68 72.66 73.06 74.40 74.08 73.21 71.72 71.15 70.56 69.87 69.68 70.47 71.47 71.62 71.20 70.63 69.23 68.42 67.42 66.75 66.63 67.03 67.72 68.28 68.27 68.53 68.43 67.89 67.35 66.87 65.97 65.02 65.06 65.60 66.93 63.08 62.36 65.49 66.70 67.21 66.84 66.33 66.96
72.35 72.47 72.68 74.32 74.08 72.80 71.55 70.98 69.78 69.43 69.94 70.32 71.71 72.13 71.10 69.65 68.48 68.49 68.29 66.99 66.86 66.79 66.88 66.95 66.89 67.16 67.35 67.31 67.42 68.27 67.17 66.22 66.36 67.75 64.49 62.75 63.03 66.62 65.32 64.69 65.87 67.25 68.04
71.81 72.31 73.23 74.27 73.81 72.73 71.54 70.63 69.54 70.44 70.53 71.53 71.06 70.74 69.88 69.32 68.88 68.81 68.69 67.38 67.00 67.14 67.47 67.43 67.40 67.19 67.09 67.09 67.48 67.87 67.89 67.07 67.96 66.42 63.53 61.68 63.86 67.49 67.86 67.18 66.36 66.16 66.32
70.68 71.92 73.46 73.97 73.68 73.01 72.37 70.83 69.45 70.84 71.24 70.11 70.84 70.39 70.05 68.58 68.67 68.73 68.67 67.82 67.04 67.13 67.68 67.95 67.78 67.66 67.50 67.61 67.52 67.10 66.82 66.69 67.69 63.78 63.64 67.15 65.09 68.51 67.75 67.27 68.52 68.46 68.00
70.63 72.40 72.80 73.97 73.79 73.07 72.34 71.73 70.02 70.38 70.60 70.01 69.32 69.00 69.03 69.42 69.28 69.00 68.87 68.23 67.57 67.27 67.64 68.08 68.61 68.16 67.97 68.21 68.08 67.74 67.60 67.89 64.83 62.94 64.25 65.71 66.52 68.57 68.00 68.80 68.75 68.77 69.01
71.08 72.02 72.53 73.17 73.39 72.76 72.02 71.17 70.44 70.22 70.48 70.19 69.80 69.85 69.86 69.08 69.06 69.68 69.30 68.59 68.00 67.81 68.00 68.59 68.55 68.52 68.75 68.72 68.30 67.83 67.63 67.24 64.57 61.85 63.44 63.37 68.08 67.64 67.18 67.63 66.96 67.55 68.90
71.68 71.69 72.02 72.14 71.97 71.66 71.26 70.59 70.27 70.13 70.46 70.50 70.11 70.10 69.18 70.31 71.08 70.71 69.60 68.90 68.45 67.88 68.49 68.91 68.91 68.87 68.56 67.77 66.41 65.18 65.31 64.47 59.99 59.95 60.85 60.94 66.81 66.04 66.16 66.07 67.10 67.96 67.31
71.00 71.42 71.24 71.20 71.09 70.05 69.49 70.12 69.75 69.53 69.73 69.93 69.75 69.60 67.84 69.12 69.84 70.29 69.66 69.33 68.27 68.40 69.03 68.62 68.49 68.06 67.29 65.59 63.17 63.72 62.72 61.01 55.72 57.82 59.26 61.52 65.15 64.36 65.86 66.89 66.69 66.59 66.11
70.04 70.46 70.71 70.48 69.93 69.13 68.54 68.51 69.41 69.15 68.77 68.82 67.99 67.49 65.85 65.58 67.48 67.38 67.24 68.05 68.72 68.51 68.18 67.26 66.94 66.52 65.18 64.00 62.87 62.24 58.58 50.33 53.51 56.00 58.01 64.21 63.96 67.09 65.93 66.41 65.37 65.07 65.05
66.02 69.24 70.32 70.12 69.49 68.95 69.53 67.79 66.90 67.20 65.60 64.88 64.84 65.19 64.34 62.97 64.69 66.37 65.29 67.04 68.34 68.28 66.94 65.40 63.46 63.18 62.17 56.29 55.05 55.48 48.97 48.94 52.82 56.40 59.84 64.61 64.53 65.33 65.36 64.00 63.42 63.25 63.50
64.11 66.79 70.12 69.88 69.77 68.98 68.66 67.51 66.38 65.96 64.86 63.59 62.99 63.61 62.79 61.79 62.51 62.43 63.14 64.38 63.89 63.77 61.73 60.16 56.72 53.99 51.73 50.06 48.43 46.93 47.23 48.05 52.99 55.16 60.83 64.89 64.64 63.48 63.27 61.96 61.61 61.75 61.43
63.43 65.10 67.84 69.95 69.55 69.11 68.43 67.18 66.35 65.73 65.70 64.30 63.57 63.34 60.24 59.29 61.04 60.63 61.11 61.90 62.02 61.34 58.66 55.50 51.71 49.69 46.77 45.67 45.20 44.95 44.80 45.40 50.86 52.85 57.87 61.80 61.59 62.08 61.17 60.21 59.53 58.98 58.64
62.76 64.45 65.51 68.55 69.05 68.70 67.65 66.92 67.21 65.59 66.12 65.90 64.82 64.35 59.86 58.87 58.51 59.61 61.08 61.46 58.63 56.08 53.50 49.80 46.46 45.49 44.50 44.20 43.84 43.81 43.10 43.24 49.49 50.87 52.71 58.99 58.77 58.35 58.03 57.22 56.41 56.08 55.87
61.28 63.78 65.96 66.26 67.54 68.33 67.89 67.76 67.45 66.88 66.35 66.37 64.52 64.08 60.08 60.03 59.13 59.44 57.16 55.85 53.87 51.00 47.93 45.83 44.91 44.06 43.08 42.80 43.17 42.55 41.82 42.23 46.03 48.22 49.45 52.44 56.10 54.75 54.38 53.98 53.74 53.54 53.77
55.77 63.10 65.23 66.34 67.22 67.81 67.29 68.06 67.28 67.70 66.30 66.24 66.12 65.07 62.49 60.92 60.00 56.62 54.82 53.15 50.25 47.32 46.71 45.64 44.76 43.22 42.70 43.14 41.34 42.05 41.94 41.70 42.45 46.02 46.39 46.58 48.26 53.46 51.99 51.44 51.45 51.63 51.60
55.61 57.54 65.28 67.33 67.43 67.59 67.68 66.51 67.28 67.82 65.75 65.62 65.95 65.73 63.56 60.92 57.91 54.67 52.77 50.03 47.69 46.43 45.12 43.36 42.45 41.71 40.75 40.28 39.28 39.84 40.77 42.11 41.56 41.78 43.98 44.25 43.73 45.38 47.83 48.92 49.41 49.73 49.54
53.53 55.99 59.73 66.02 66.74 67.60 67.58 67.29 65.74 65.74 64.78 64.89 64.98 65.29 62.23 58.47 56.56 53.69 50.79 48.58 46.75 45.19 43.63 43.36 40.89 40.45 38.80 39.06 40.41 39.34 40.87 41.05 41.42 42.92 40.47 41.14 41.71 41.49 40.89 46.86 48.26 47.90 48.25
54.82 53.68 55.74 62.23 66.04 67.54 67.50 67.53 64.73 65.16 64.99 65.72 65.62 64.12 58.48 56.26 54.53 52.40 49.16 47.16 46.86 44.72 42.29 41.52 40.29 39.57 38.48 37.90 41.70 41.99 41.07 42.14 41.42 40.23 40.43 42.34 40.94 40.64 40.16 39.88 38.56 39.92 46.19
51.06 51.40 52.83 56.41 64.27 65.91 65.89 65.19 62.47 63.61 63.81 64.28 62.88 58.78 55.55 52.21 51.55 51.35 49.27 46.52 46.44 43.84 41.42 41.01 40.12 38.77 37.92 37.28 37.50 38.20 39.94 40.12 40.75 41.08 41.65 41.04 40.84 40.44 38.70 37.73 37.33 37.09 37.86
52.28 52.74 52.03 54.26 58.45 64.44 66.31 66.18 63.88 61.25 59.51 58.70 56.51 55.03 53.22 52.19 51.26 49.65 47.54 46.76 45.49 41.96 40.49 40.17 40.09 38.74 37.71 36.71 35.34 35.78 34.48 37.17 37.57 39.08 38.83 39.42 37.31 37.69 38.27 38.33 37.01 37.02 35.91
49.83 51.83 53.31 52.93 55.37 58.35 62.72 58.95 54.23 53.04 51.82 49.86 49.30 50.65 50.32 50.64 50.01 48.49 48.28 46.12 44.52 43.31 39.89 38.98 38.67 38.97 36.87 36.54 35.29 35.10 32.75 32.38 31.68 35.84 36.28 36.02 36.10 35.72 35.33 36.32 37.40 37.27 36.29
47.23 50.43 53.11 53.70 54.26 56.75 61.05 60.04 59.09 59.57 56.43 51.92 48.57 49.36 48.55 49.92 48.38 46.52 45.31 45.63 44.49 42.43 39.42 38.53 39.31 37.27 37.52 35.63 36.46 37.66 34.00 33.03 30.55 29.94 33.88 34.53 35.00 35.63 34.25 34.41 34.93 35.52 35.78
46.24 47.39 51.16 52.89 53.84 56.89 61.08 60.64 60.93 57.75 50.79 48.59 47.42 47.58 47.54 47.39 48.33 46.82 45.09 44.73 43.04 42.36 40.29 37.90 37.00 36.29 36.03 35.00 34.96 34.05 32.98 32.87 31.69 30.25 28.37 30.80 32.70 34.10 34.45 33.75 33.84 33.69 34.53
47.47 46.61 47.94 52.00 52.98 60.10 59.97 59.37 59.77 52.54 47.11 46.39 46.21 45.62 46.65 46.38 46.39 46.04 45.01 42.02 41.73 40.82 40.11 37.14 36.34 35.82 35.23 34.83 34.23 33.54 32.87 31.49 30.35 29.28 27.39 27.45 28.24 30.89 32.66 33.58 32.92 32.67 33.03
MSLP
1012.47 1012.20 1012.49 1012.85 1013.20 1013.49 1013.80 1014.07 1014.32 1014.57 1014.83 1015.11 1015.31 1015.54 1015.81 1016.01 1016.22 1016.39 1016.49 1016.55 1016.61 1016.63 1016.69 1016.65 1016.50 1016.47 1016.49 1016.76 1016.95 1017.09 1017.20 1017.30 1017.38 1017.49 1017.67 1017.67 1017.61 1017.52 1017.64 1017.67 1017.59 1017.51 1017.51
1012.02 1012.32 1012.50 1012.84 1013.16 1013.55 1013.93 1014.28 1014.55 1014.80 1014.96 1015.19 1015.41 1015.61 1015.90 1016.10 1016.26 1016.44 1016.61 1016.78 1016.82 1016.73 1016.82 1016.93 1016.89 1016.82 1016.86 1016.98 1017.08 1017.15 1017.32 1017.37 1017.45 1017.56 1017.74 1017.83 1017.84 1017.60 1017.63 1017.67 1017.60 1017.59 1017.62
1011.90 1012.37 1012.69 1012.91 1013.19 1013.57 1014.02 1014.40 1014.68 1014.92 1015.10 1015.25 1015.43 1015.66 1015.95 1016.19 1016.38 1016.58 1016.72 1016.87 1016.92 1016.99 1017.08 1017.08 1017.07 1017.15 1017.15 1017.28 1017.39 1017.32 1017.41 1017.44 1017.52 1017.60 1017.75 1017.90 1017.95 1017.77 1017.68 1017.73 1017.56 1017.53 1017.47
1011.63 1012.33 1012.69 1013.00 1013.23 1013.51 1013.90 1014.24 1014.61 1014.91 1015.10 1015.33 1015.44 1015.62 1016.05 1016.27 1016.48 1016.71 1016.89 1017.02 1017.10 1017.18 1017.20 1017.26 1017.31 1017.26 1017.30 1017.41 1017.45 1017.48 1017.46 1017.43 1017.54 1017.67 1017.62 1017.71 1017.80 1017.79 1017.74 1017.74 1017.62 1017.43 1017.42
1011.67 1012.26 1012.68 1012.94 1013.20 1013.64 1013.97 1014.24 1014.55 1014.88 1015.06 1015.29 1015.59 1015.83 1016.11 1016.30 1016.56 1016.73 1016.99 1017.17 1017.24 1017.30 1017.31 1017.34 1017.34 1017.45 1017.52 1017.58 1017.57 1017.55 1017.57 1017.56 1017.61 1017.63 1017.63 1017.75 1017.76 1017.70 1017.78 1017.74 1017.71 1017.52 1017.45
1011.63 1012.25 1012.71 1012.95 1013.23 1013.61 1014.00 1014.28 1014.58 1014.82 1015.09 1015.40 1015.62 1015.91 1016.13 1016.30 1016.50 1016.78 1016.99 1017.19 1017.29 1017.35 1017.37 1017.37 1017.51 1017.53 1017.55 1017.64 1017.63 1017.71 1017.59 1017.57 1017.63 1017.60 1017.53 1017.45 1017.75 1017.57 1017.58 1017.52 1017.51 1017.47 1017.29
1011.54 1011.99 1012.50 1012.88 1013.26 1013.69 1013.93 1014.20 1014.53 1014.77 1015.02 1015.36 1015.67 1015.99 1016.14 1016.33 1016.48 1016.69 1016.98 1017.15 1017.21 1017.31 1017.36 1017.37 1017.44 1017.58 1017.61 1017.62 1017.72 1017.76 1017.73 1017.63 1017.61 1017.69 1017.57 1017.42 1017.43 1017.49 1017.48 1017.50 1017.40 1017.31 1017.20
1011.38 1011.91 1012.43 1012.76 1013.13 1013.59 1013.86 1014.11 1014.55 1014.82 1015.02 1015.32 1015.58 1015.86 1016.19 1016.36 1016.45 1016.56 1016.83 1017.08 1017.17 1017.25 1017.32 1017.36 1017.38 1017.53 1017.61 1017.75 1017.79 1017.82 1017.79 1017.84 1017.89 1017.93 1017.69 1017.74 1017.57 1017.48 1017.44 1017.46 1017.58 1017.37 1017.21
1011.07 1011.81 1012.40 1012.79 1013.10 1013.52 1013.85 1014.06 1014.30 1014.65 1015.04 1015.30 1015.68 1015.87 1016.18 1016.30 1016.05 1016.27 1016.75 1017.02 1017.06 1017.18 1017.30 1017.37 1017.48 1017.59 1017.65 1017.74 1017.82 1017.82 1017.82 1017.83 1018.20 1018.11 1017.90 1017.91 1017.64 1017.52 1017.56 1017.59 1017.55 1017.58 1017.60
1011.36 1011.77 1012.15 1012.78 1013.11 1013.55 1013.87 1014.08 1014.36 1014.64 1014.86 1015.24 1015.63 1015.86 1016.09 1016.23 1016.30 1016.51 1016.73 1016.95 1017.17 1017.25 1017.34 1017.42 1017.50 1017.62 1017.72 1017.76 1017.73 1017.83 1017.84 1017.93 1018.07 1018.31 1018.19 1017.93 1017.64 1017.53 1017.64 1017.76 1017.67 1017.77 1017.85
1011.31 1011.67 1012.08 1012.74 1013.13 1013.54 1013.82 1014.10 1014.38 1014.68 1015.00 1015.14 1015.49 1015.88 1016.17 1016.36 1016.49 1016.72 1016.89 1017.08 1017.16 1017.31 1017.50 1017.54 1017.59 1017.66 1017.92 1017.87 1017.93 1017.90 1017.96 1018.15 1018.42 1018.49 1018.31 1017.94 1017.71 1017.75 1018.00 1018.11 1018.04 1018.07 1018.27
1011.14 1011.53 1011.87 1012.39 1012.84 1013.33 1013.56 1014.06 1014.42 1014.72 1015.11 1015.38 1015.59 1015.82 1016.11 1016.45 1016.61 1016.69 1017.01 1017.13 1017.26 1017.32 1017.47 1017.56 1017.67 1017.77 1017.88 1018.03 1018.15 1017.97 1018.14 1018.14 1018.45 1018.53 1018.33 1018.05 1017.84 1018.11 1018.34 1018.57 1018.46 1018.45 1018.66
1010.43 1010.99 1011.51 1011.92 1012.17 1012.72 1013.12 1013.76 1014.28 1014.55 1014.95 1015.35 1015.57 1015.77 1015.98 1016.27 1016.64 1016.87 1017.10 1017.22 1017.40 1017.58 1017.56 1017.69 1017.78 1017.97 1018.02 1017.97 1018.19 1018.15 1018.29 1018.36 1018.66 1018.69 1018.57 1018.23 1018.30 1018.43 1018.77 1018.92 1018.88 1018.82 1019.05
1010.00 1010.15 1010.83 1011.35 1011.82 1012.06 1012.58 1013.10 1013.55 1014.16 1014.58 1014.96 1015.16 1015.51 1015.99 1016.27 1016.36 1016.75 1017.00 1017.19 1017.35 1017.58 1017.79 1017.89 1018.02 1018.09 1018.18 1018.13 1018.28 1018.34 1018.48 1018.63 1018.91 1018.91 1018.93 1018.58 1018.88 1018.86 1019.01 1019.19 1019.34 1019.38 1019.34
1009.73 1009.72 1009.96 1010.57 1011.13 1011.62 1012.04 1012.39 1012.75 1013.44 1013.93 1014.26 1014.56 1014.82 1015.40 1015.86 1016.18 1016.36 1016.69 1016.88 1017.21 1017.38 1017.80 1018.03 1018.16 1018.31 1018.29 1018.28 1018.50 1018.44 1018.59 1018.88 1019.14 1019.18 1019.18 1019.08 1019.33 1019.35 1019.33 1019.43 1019.68 1019.62 1019.69
1008.88 1009.13 1009.35 1009.78 1010.23 1010.96 1011.46 1011.78 1012.12 1012.63 1013.17 1013.62 1014.03 1014.36 1014.76 1015.04 1015.36 1015.96 1016.38 1016.85 1017.13 1017.20 1017.60 1017.86 1018.17 1018.49 1018.61 1018.57 1018.59 1018.63 1018.76 1018.92 1019.20 1019.38 1019.47 1019.43 1019.67 1019.67 1019.58 1019.77 1019.83 1019.91 1019.85
1008.45 1008.36 1008.80 1009.04 1009.60 1010.10 1010.67 1011.01 1011.31 1011.89 1012.61 1012.95 1013.19 1013.62 1014.02 1014.53 1015.19 1015.82 1016.27 1016.82 1017.09 1017.34 1017.63 1017.97 1018.26 1018.48 1018.81 1018.79 1018.96 1018.81 1018.75 1018.86 1019.34 1019.62 1019.68 1019.87 1020.00 1019.91 1019.79 1019.85 1019.89 1019.94 1019.93
1008.15 1008.19 1008.04 1008.37 1008.85 1009.46 1010.09 1010.56 1010.82 1011.12 1011.90 1012.31 1012.65 1012.99 1013.55 1014.10 1014.71 1015.56 1016.12 1016.69 1017.00 1017.47 1017.96 1018.30 1018.57 1018.86 1019.12 1019.20 1019.19 1019.08 1019.02 1018.90 1019.20 1019.58 1019.86 1020.06 1020.16 1020.13 1020.05 1020.08 1020.09 1020.05 1020.06
1007.47 1007.62 1007.99 1007.74 1008.09 1008.48 1009.09 1009.95 1010.45 1010.96 1011.58 1011.95 1012.22 1012.56 1013.35 1014.01 1014.59 1015.22 1015.96 1016.49 1016.87 1017.55 1018.07 1018.41 1018.88 1019.02 1019.39 1019.35 1019.29 1019.17 1019.20 1019.09 1019.13 1019.37 1019.86 1019.98 1020.03 1020.13 1020.24 1020.15 1020.27 1020.33 1020.31
1006.81 1006.95 1007.16 1007.58 1007.45 1007.91 1008.59 1009.26 1010.17 1010.84 1011.41 1011.59 1011.91 1012.30 1013.08 1013.75 1014.33 1014.95 1015.85 1016.44 1016.84 1017.54 1018.14 1018.51 1018.93 1019.28 1019.51 1019.57 1019.43 1019.33 1019.30 1019.24 1019.20 1019.46 1019.72 1019.70 1019.87 1019.97 1020.11 1020.37 1020.55 1020.55 1020.40
1006.52 1006.60 1006.75 1007.01 1007.05 1007.40 1008.34 1009.24 1010.23 1010.72 1011.23 1011.51 1011.87 1012.27 1012.84 1013.62 1014.04 1014.64 1015.38 1016.11 1016.71 1017.28 1017.84 1018.37 1018.97 1019.53 1019.91 1019.76 1019.77 1019.87 1019.77 1019.63 1019.50 1019.45 1019.52 1019.80 1019.85 1019.90 1020.08 1020.36 1020.54 1020.52 1020.50
1006.25 1006.13 1006.30 1006.59 1006.80 1006.65 1007.16 1007.95 1008.98 1010.28 1011.26 1011.29 1011.83 1012.37 1012.67 1013.31 1013.97 1014.50 1015.22 1015.88 1016.67 1017.25 1017.80 1018.31 1018.79 1019.68 1020.12 1020.00 1020.20 1020.55 1020.55 1020.37 1019.95 1019.82 1019.85 1019.94 1020.18 1020.18 1020.24 1020.28 1020.38 1020.39 1020.37
1005.92 1005.75 1005.69 1005.96 1006.35 1006.46 1006.77 1008.01 1009.18 1010.09 1011.30 1012.16 1012.33 1012.40 1012.79 1013.21 1013.81 1014.41 1015.18 1015.50 1016.43 1016.95 1017.71 1018.28 1018.69 1019.28 1020.07 1020.34 1020.22 1020.34 1020.83 1021.21 1021.12 1020.45 1020.32 1020.31 1020.37 1020.60 1020.71 1020.63 1020.42 1020.31 1020.20
1005.46 1005.51 1005.34 1005.37 1005.79 1006.05 1006.54 1007.11 1007.94 1009.01 1010.60 1011.37 1011.96 1012.05 1012.41 1013.16 1013.77 1014.48 1015.30 1015.91 1016.21 1017.03 1017.60 1018.12 1018.71 1019.09 1019.50 1020.25 1020.42 1020.36 1020.58 1020.95 1021.41 1021.44 1020.91 1020.63 1020.67 1020.77 1020.86 1020.67 1020.56 1020.43 1020.27
1005.01 1004.98 1005.05 1005.19 1005.04 1005.34 1006.19 1006.32 1007.34 1008.79 1010.01 1011.12 1012.15 1012.59 1012.65 1013.14 1014.03 1014.52 1015.23 1016.11 1016.56 1017.06 1017.54 1017.98 1018.50 1019.04 1019.35 1019.97 1020.33 1020.64 1020.89 1021.08 1021.31 1021.80 1021.95 1021.41 1020.94 1020.69 1020.70 1020.70 1020.53 1020.33 1020.15
1004.81 1004.96 1004.87 1004.72 1004.67 1004.85 1005.43 1006.20 1006.81 1008.02 1009.58 1011.13 1012.19 1012.65 1012.88 1013.03 1014.12 1014.65 1015.16 1016.02 1016.59 1017.05 1017.45 1018.19 1018.43 1019.01 1019.53 1019.88 1020.29 1020.60 1020.90 1021.27 1021.59 1021.91 1022.28 1021.96 1021.67 1021.00 1020.83 1020.59 1020.48 1020.42 1020.31
Wind_Speed
7 13 18 18 17 16 15 15 14 13 13 13 14 16 15 15 14 14 13 12 11 10 11 11 13 13 13 15 14 12 10 9 7 6 6 5 6 9 8 7 7 7 6
13 12 18 18 18 17 16 15 14 12 10 12 13 15 14 14 14 13 13 12 11 11 11 10 12 14 15 14 11 11 8 6 3 3 3 2 2 7 7 6 5 4 5
15 13 14 18 18 17 17 15 13 12 11 11 13 14 15 15 14 13 14 12 12 12 11 11 11 12 12 11 9 9 6 4 3 4 3 3 2 5 6 6 4 1 1
16 12 13 18 18 18 17 15 13 13 13 12 11 15 15 14 14 14 14 13 13 12 12 11 10 10 10 9 8 7 4 3 3 5 3 4 4 6 5 3 2 5 6
15 12 13 18 19 17 17 16 15 15 14 15 13 14 14 14 14 14 13 12 12 12 11 11 10 10 9 8 6 6 5 2 4 4 4 5 4 4 5 3 3 3 3
16 13 17 19 19 17 16 16 15 14 15 15 13 13 13 13 13 12 13 12 11 10 10 9 8 8 7 6 5 4 3 4 6 5 4 8 5 6 5 4 3 3 3
15 15 16 20 18 17 16 15 15 16 17 16 14 13 12 10 10 10 13 12 11 9 8 8 7 7 7 6 4 3 4 6 5 4 1 4 4 7 5 7 9 9 8
16 15 15 19 19 17 16 16 15 15 16 14 14 14 12 9 8 10 15 12 11 9 8 7 8 7 6 5 3 2 3 6 5 5 5 5 7 7 5 8 7 7 10
15 14 12 13 15 17 16 16 16 16 14 14 12 13 9 5 6 15 14 12 10 9 8 7 6 6 5 4 2 1 3 5 4 4 4 3 6 7 6 6 7 11 13
13 14 12 10 11 10 9 14 14 14 14 12 11 12 10 8 10 14 12 11 10 9 8 7 7 6 4 3 1 2 5 8 5 4 3 3 8 6 7 10 9 12 12
11 12 12 10 9 7 6 8 11 12 11 11 11 11 8 4 6 8 8 10 9 8 7 6 6 6 3 1 3 6 6 4 5 3 2 7 8 12 10 12 12 12 12
13 13 13 13 12 10 8 7 6 6 4 4 5 6 5 5 4 7 7 10 9 8 7 7 5 5 4 1 2 5 2 6 4 3 3 7 8 11 13 12 12 11 12
9 11 14 14 14 13 9 7 4 3 4 4 6 6 5 4 4 4 3 3 3 5 2 3 2 2 3 3 3 4 4 5 3 3 5 11 11 10 12 12 12 12 11
10 12 15 15 14 13 9 9 8 6 6 5 6 7 4 3 6 5 4 4 4 3 3 2 2 3 4 5 4 4 5 4 3 3 4 13 11 11 11 11 11 11 10
10 11 13 17 15 12 12 9 9 9 8 8 8 8 7 6 5 5 5 4 4 4 4 4 4 3 4 4 4 4 5 6 6 3 3 12 11 11 10 10 10 10 10
12 12 13 14 15 13 11 12 9 9 10 8 7 9 9 6 5 5 5 5 4 5 4 4 4 3 3 3 4 3 4 5 5 5 3 5 10 9 9 9 10 10 10
7 13 14 14 14 16 12 13 9 8 9 8 9 12 11 8 6 8 6 5 4 4 6 4 4 4 4 3 4 2 2 4 5 5 4 4 5 7 8 8 9 10 10
8 7 15 14 15 16 13 8 8 9 7 8 8 7 9 10 11 7 6 5 5 5 4 4 3 4 3 3 2 3 1 2 5 6 5 4 3 3 5 6 8 9 9
9 9 10 16 17 17 14 10 6 8 5 6 6 8 11 11 11 9 5 5 6 5 4 3 3 3 2 3 3 1 0 2 3 4 5 6 6 4 3 3 8 9 10
14 9 9 10 16 17 12 10 5 5 5 7 8 7 11 9 10 9 6 6 6 5 5 3 4 4 2 2 2 2 1 2 3 4 4 3 4 4 3 4 3 2 7
8 8 8 9 14 13 10 9 4 7 6 5 4 11 11 8 10 11 7 7 6 6 6 6 4 4 4 3 2 3 3 3 1 2 2 2 4 3 4 4 2 1 1
9 9 7 8 10 13 12 11 6 5 2 4 6 7 10 11 9 10 10 8 8 6 6 5 4 3 2 4 3 2 2 4 4 3 2 3 2 1 2 0 2 1 2
9 9 9 9 9 10 10 8 6 7 4 3 2 6 6 9 10 9 9 10 9 6 5 5 5 5 3 2 4 3 2 2 2 3 3 3 4 3 3 4 3 4 2
9 8 10 9 9 9 13 12 18 12 10 4 4 4 8 9 8 9 8 8 9 6 7 5 4 4 4 3 2 3 3 3 2 3 3 3 2 3 3 4 4 4 4
6 8 9 9 8 9 11 15 13 12 5 6 5 7 8 9 8 10 9 9 8 6 6 7 7 6 3 4 3 2 3 2 3 2 4 4 4 4 4 3 5 4 6
5 5 7 9 9 10 14 14 17 17 14 10 9 8 8 9 8 9 11 8 8 8 8 5 6 7 5 5 3 2 2 2 2 2 2 3 4 3 3 4 4 4 4
Wind_Direction
153 150 147 141 133 126 121 116 114 114 119 121 123 121 119 113 104 95 88 85 86 93 86 79 83 81 95 109 102 94 83 75 66 65 70 69 67 79 70 59 40 42 65
143 149 146 141 135 130 124 119 116 114 118 128 131 129 126 118 108 97 87 83 86 96 96 88 81 89 87 89 92 90 84 77 56 53 77 122 2 73 75 55 52 48 68
140 149 147 142 137 131 127 122 119 120 127 136 143 144 134 123 113 106 99 96 96 98 100 97 93 88 88 87 86 83 79 64 21 350 351 141 187 72 76 49 56 45 121
142 151 151 145 140 137 135 130 127 130 131 134 128 144 130 124 121 114 106 103 101 102 101 96 93 91 91 93 93 87 89 66 359 332 339 140 153 79 68 55 13 22 19
141 152 153 148 143 142 141 137 135 137 134 134 127 130 132 134 127 121 115 111 109 107 101 95 91 88 90 92 91 84 75 359 327 324 326 120 122 98 66 28 341 341 338
148 148 152 150 147 147 146 141 139 140 146 132 131 129 136 135 135 132 128 122 116 110 102 99 95 95 93 86 84 70 52 343 335 326 149 129 142 93 57 7 329 281 275
146 149 153 153 150 151 150 146 145 147 145 140 139 141 141 135 140 149 144 134 128 121 111 105 105 103 102 98 84 58 3 339 342 339 308 114 114 64 40 27 38 28 36
146 151 157 155 153 155 153 148 149 154 153 146 144 141 139 149 167 162 151 144 136 129 119 114 114 115 106 95 79 34 334 336 344 11 64 65 65 63 40 46 26 30 40
140 147 155 159 156 159 159 156 155 155 160 153 150 142 135 136 169 159 150 147 139 133 126 125 126 121 117 115 115 338 356 339 36 80 75 52 59 60 51 50 66 64 51
148 153 153 159 156 160 163 161 160 160 158 156 154 140 141 132 122 137 142 144 144 140 134 129 134 138 138 137 176 30 10 23 86 85 62 44 51 53 68 75 71 66 62
155 157 157 156 155 155 155 167 161 160 165 160 156 156 153 148 138 132 142 140 147 149 147 144 148 136 124 116 321 18 60 69 98 64 53 58 48 82 78 78 65 62 66
160 167 165 164 165 164 168 157 154 153 153 163 159 168 170 169 158 147 149 152 157 157 159 165 145 134 128 70 10 46 28 63 88 61 32 67 89 87 82 71 64 60 64
177 168 172 172 172 171 167 160 160 158 155 175 179 188 170 165 161 148 147 155 153 167 175 124 108 123 103 89 54 54 30 67 88 71 47 65 85 86 77 68 62 63 55
187 184 170 176 177 177 161 166 171 168 179 185 183 195 151 159 150 162 162 168 165 174 172 155 128 85 82 74 59 60 49 79 103 84 64 79 83 80 78 67 61 56 51
196 188 178 174 177 178 166 171 172 177 186 191 187 187 163 170 170 165 167 162 164 147 142 114 95 78 66 62 59 72 55 82 125 103 77 91 89 84 77 68 57 50 40
190 189 187 179 173 168 175 173 178 175 191 188 184 180 176 168 171 149 141 147 138 122 124 116 103 81 62 53 42 66 81 78 129 125 109 97 105 94 80 65 50 37 31
227 181 188 182 166 174 177 181 174 178 178 185 179 174 172 167 145 146 144 132 128 113 104 94 74 71 54 27 41 32 79 99 110 140 122 105 95 85 81 60 41 29 24
226 198 187 187 177 172 179 181 175 180 174 180 179 162 163 146 145 142 133 131 130 109 107 93 85 71 67 42 351 358 34 87 110 129 139 134 126 106 78 70 38 24 14
221 217 202 190 183 184 183 175 188 176 165 167 164 155 151 146 144 137 135 134 126 115 108 115 67 102 56 3 318 16 226 121 143 120 142 148 155 138 138 51 49 38 13
237 211 197 201 187 185 184 181 136 157 177 171 178 155 144 144 143 133 131 131 127 124 120 106 107 56 83 334 320 356 279 109 132 133 161 140 143 142 131 90 78 31 18
233 240 212 180 199 175 176 175 154 168 165 149 143 149 142 138 142 143 145 134 134 138 143 137 113 99 24 348 57 1 8 4 110 169 165 122 159 156 126 133 163 147 15
233 218 220 207 197 191 180 183 159 148 128 126 145 136 143 147 148 146 152 146 142 131 126 128 125 116 78 14 109 90 34 339 346 4 53 114 107 101 112 135 319 318 159
241 236 221 199 204 197 174 119 94 88 77 75 135 141 144 145 147 146 157 144 144 135 135 132 130 136 141 26 60 135 82 217 320 334 20 61 29 43 3 354 336 311 261
239 244 235 207 190 203 160 156 158 168 168 192 178 175 140 150 145 138 134 143 134 131 133 136 130 128 124 137 44 45 80 141 140 331 330 334 27 32 344 329 346 338 296
254 225 222 242 198 180 176 167 166 156 122 125 121 138 151 133 141 139 129 136 138 135 137 133 126 121 115 127 133 108 60 46 71 130 270 308 347 335 327 333 314 315 325
322 289 240 228 229 182 165 170 165 151 142 143 156 160 166 142 143 144 138 135 140 141 141 137 123 119 116 111 113 115 145 153 177 141 255 278 266 281 305 299 308 336 335